"Pseudo-MPEC" for P113o4V

Created 2020 Aug 4 23:07:12 UT using Find_Orb

Click here for an explanation of pseudo-MPECs

 
 Astrometry: 
     P113o4V  C2020 07 30q_:hC!IVOEOAstrometryN`1v]x=wP4Nredacted;nSt*x=Zot]yF51
     P113o4V  C2020 07 30PSH,(H50bF`Ex#FvS4$!AR,?of4qclick`Kp6$sv`A2J)2here0NF51
     P113o4V  C2020 07 3014NaAb?C)qOHg;6^Ua/l?(BYIT),AnZ,(cm#forKexplanation2F51

Station data:
(F51) Pan-STARRS 1, Haleakala  (N20.707235 W156.255910)  US/Hawaii.
   Observers N. Primak, A. Schultz, S. Watters, J. Thiel, T. Goggia. Measurer
   PS1 Science Consortium. 1.8-m Ritchey-Chrétien + CCD.

Orbital elements:  P113o4V
   Perihelion 2020 Dec 18.440172 +/- 63.7 TT = 10:33:50 (JD 2459201.940172)
Epoch 2020 Jul 31.0 TT = JDT 2459061.5   Earth MOID: 0.0368   AutoNEOCP
M 208.59325629 +/- 90               (J2000 ecliptic)
n   1.07808713 +/- 0.974            Peri.  165.92036 +/- 80
a   0.94196219 +/- 0.567            Node   301.70308 +/- 80
e   0.0405640 +/- 0.241             Incl.    3.41391 +/- 60
P   0.91/333.92d           H 22.8   G  0.15   U 12.7  SR
q 0.90375236 +/- 0.374    Q 0.98017201 +/- 10.4
From 3 observations 2020 July 30 (53.0 min); mean residual 0".13
Residuals in arcseconds: 
200730 F51  .06+  .06+    200730 F51  .18-  .18-    200730 F51  .12+  .12+    

Ephemerides (geocentric):
Date (UTC) HH   RA              Dec         delta   r     elong  mag " sig PA
---- -- -- --  -------------   -----------  ------ ------ -----  --- ---- ---
2020 08 04 23  04 10 14.883   +29 36 24.80  .11810 .97412  66.9 22.1  44d  19
2020 08 05 00  04 10 24.749   +29 37 50.65  .11814 .97411  66.9 22.1  44d  19
2020 08 05 01  04 10 34.621   +29 39 16.41  .11818 .97409  66.9 22.1  44d  19
2020 08 05 02  04 10 44.499   +29 40 42.08  .11822 .97408  66.9 22.1  44d  19
2020 08 05 03  04 10 54.383   +29 42 07.66  .11826 .97406  66.9 22.1  44d  19
2020 08 05 04  04 11 04.274   +29 43 33.14  .11830 .97404  66.9 22.1  44d  19
2020 08 05 05  04 11 14.170   +29 44 58.53  .11834 .97403  66.9 22.1  44d  19
2020 08 05 06  04 11 24.072   +29 46 23.84  .11838 .97401  66.9 22.1  44d  19
2020 08 05 07  04 11 33.981   +29 47 49.05  .11842 .97400  66.9 22.1  44d  19
2020 08 05 08  04 11 43.895   +29 49 14.16  .11846 .97398  66.9 22.1  44d  19
2020 08 05 09  04 11 53.816   +29 50 39.19  .11850 .97396  66.9 22.1  44d  19
2020 08 05 10  04 12 03.743   +29 52 04.13  .11855 .97395  66.9 22.1  45d  19
2020 08 05 11  04 12 13.675   +29 53 28.97  .11859 .97393  66.9 22.1  45d  19
2020 08 05 12  04 12 23.614   +29 54 53.72  .11863 .97392  66.9 22.1  45d  19
2020 08 05 13  04 12 33.559   +29 56 18.38  .11867 .97390  66.9 22.1  45d  19
2020 08 05 14  04 12 43.510   +29 57 42.95  .11871 .97389  66.9 22.1  45d  19
2020 08 05 15  04 12 53.467   +29 59 07.42  .11875 .97387  66.9 22.1  45d  19
2020 08 05 16  04 13 03.430   +30 00 31.81  .11879 .97385  66.9 22.1  45d  19
2020 08 05 17  04 13 13.399   +30 01 56.10  .11883 .97384  66.9 22.1  45d  19
2020 08 05 18  04 13 23.374   +30 03 20.30  .11888 .97382  66.9 22.1  45d  19
2020 08 05 19  04 13 33.355   +30 04 44.40  .11892 .97381  66.9 22.1  45d  19
2020 08 05 20  04 13 43.343   +30 06 08.42  .11896 .97379  66.9 22.1  46d  19
2020 08 05 21  04 13 53.336   +30 07 32.34  .11900 .97377  66.9 22.1  46d  19
2020 08 05 22  04 14 03.335   +30 08 56.17  .11904 .97376  66.9 22.1  46d  19
2020 08 05 23  04 14 13.341   +30 10 19.90  .11908 .97374  66.9 22.1  46d  19
2020 08 06 00  04 14 23.352   +30 11 43.55  .11912 .97373  66.9 22.1  46d  19
2020 08 06 01  04 14 33.369   +30 13 07.10  .11917 .97371  66.9 22.1  46d  19
2020 08 06 02  04 14 43.393   +30 14 30.56  .11921 .97369  66.9 22.1  46d  19
2020 08 06 03  04 14 53.422   +30 15 53.92  .11925 .97368  66.9 22.1  46d  19
2020 08 06 04  04 15 03.458   +30 17 17.19  .11929 .97366  66.9 22.1  47d  19
2020 08 06 05  04 15 13.499   +30 18 40.37  .11933 .97364  66.9 22.1  47d  19
2020 08 06 06  04 15 23.547   +30 20 03.46  .11937 .97363  66.9 22.1  47d  19
2020 08 06 07  04 15 33.600   +30 21 26.45  .11941 .97361  66.9 22.1  47d  19
2020 08 06 08  04 15 43.660   +30 22 49.35  .11946 .97360  66.9 22.1  47d  19
2020 08 06 09  04 15 53.725   +30 24 12.16  .11950 .97358  66.9 22.1  47d  19
2020 08 06 10  04 16 03.797   +30 25 34.87  .11954 .97356  66.9 22.1  47d  19
2020 08 06 11  04 16 13.874   +30 26 57.49  .11958 .97355  66.9 22.1  47d  19
2020 08 06 12  04 16 23.958   +30 28 20.01  .11962 .97353  66.9 22.1  47d  19
2020 08 06 13  04 16 34.047   +30 29 42.45  .11967 .97351  66.9 22.1  48d  19
2020 08 06 14  04 16 44.143   +30 31 04.79  .11971 .97350  66.9 22.1  48d  19
2020 08 06 15  04 16 54.245   +30 32 27.03  .11975 .97348  66.9 22.1  48d  19
2020 08 06 16  04 17 04.352   +30 33 49.18  .11979 .97347  66.9 22.1  48d  19
2020 08 06 17  04 17 14.465   +30 35 11.24  .11983 .97345  66.9 22.1  48d  19
2020 08 06 18  04 17 24.585   +30 36 33.20  .11987 .97343  66.9 22.1  48d  19
2020 08 06 19  04 17 34.710   +30 37 55.07  .11992 .97342  66.9 22.1  48d  19
2020 08 06 20  04 17 44.842   +30 39 16.85  .11996 .97340  66.9 22.1  48d  19
2020 08 06 21  04 17 54.979   +30 40 38.53  .12000 .97338  66.9 22.1  49d  19
2020 08 06 22  04 18 05.122   +30 42 00.12  .12004 .97337  66.9 22.1  49d  19